Theta_e
315 316 316 317 317 317 317 317 317 318 318 319 319 320 321 321 320 321 312 319 324 338 339 333 330 328 328 323 324 324 312 309 310 310 312 318 315 318 319 316 316 316 316 319 323
314 314 315 315 315 316 316 316 317 317 318 318 319 319 320 321 317 313 323 329 338 340 329 327 323 324 321 320 320 317 311 310 315 315 314 316 316 317 316 315 314 315 318 319 320
314 314 314 314 315 315 315 315 316 316 316 317 317 318 319 320 314 314 340 332 338 337 325 328 326 323 318 320 319 317 312 315 314 315 316 315 315 318 314 312 315 313 315 318 319
314 314 314 314 314 314 314 315 315 315 315 316 316 318 319 318 301 322 339 338 339 326 321 320 321 317 316 315 319 313 316 315 313 314 315 315 317 314 314 315 317 316 316 318 318
314 314 314 314 314 314 314 314 314 314 314 314 316 317 318 311 308 320 343 336 323 318 317 316 316 317 314 316 317 314 314 314 315 315 317 317 314 314 314 317 317 317 317 317 318
314 314 313 313 314 314 314 314 314 314 313 314 316 318 314 302 315 318 323 326 326 320 317 318 318 320 316 315 314 316 316 314 315 315 317 313 314 313 315 316 314 316 317 317 316
315 315 314 313 314 314 314 314 314 314 313 314 316 317 310 306 317 318 316 315 317 317 317 318 319 317 317 313 317 316 311 313 314 314 314 315 310 311 316 317 315 315 316 317 319
315 314 314 314 314 314 314 314 314 313 314 315 316 317 307 315 318 315 318 320 322 322 317 321 319 316 317 318 314 311 312 307 313 314 314 312 305 314 317 316 315 315 317 317 319
314 314 315 314 314 314 314 313 313 313 314 316 318 315 305 318 312 315 316 312 314 318 320 320 319 313 314 310 307 310 304 306 308 315 313 311 307 314 317 316 315 316 316 317 318
312 312 314 314 314 314 313 312 314 312 318 320 316 310 312 307 312 315 317 314 311 312 314 313 313 309 310 308 300 304 306 307 306 312 313 310 309 314 316 316 315 315 317 317 318
310 311 312 313 314 313 311 312 309 309 313 306 307 306 308 312 313 312 315 313 312 309 304 310 307 303 307 310 310 309 308 306 310 313 311 310 310 312 316 316 314 315 315 318 319
310 310 311 312 313 313 312 306 308 308 304 314 312 310 312 312 307 309 317 308 306 303 306 309 304 309 311 310 309 309 307 306 309 312 311 310 309 312 313 313 315 315 315 318 319
308 309 310 311 312 311 309 309 313 312 302 304 308 309 309 311 307 308 312 310 305 303 305 305 308 311 310 309 308 308 306 306 306 310 312 309 306 309 313 314 315 315 317 319 320
308 309 310 310 306 310 308 313 312 312 296 300 304 307 310 310 305 312 314 311 307 302 306 307 312 309 308 307 309 305 310 308 307 306 301 309 298 306 310 310 312 314 316 318 320
309 307 309 309 305 308 309 313 311 309 288 305 307 314 311 306 307 307 314 311 305 304 306 304 307 307 306 308 311 307 311 308 308 305 304 304 301 305 310 307 309 312 315 318 321
309 307 308 307 308 310 313 311 308 295 287 301 307 305 304 305 306 310 307 312 312 306 308 307 312 311 310 311 311 312 308 308 307 305 297 302 301 302 305 306 308 312 314 319 320
310 308 307 308 305 311 312 306 292 289 302 300 302 305 304 302 303 305 303 303 302 299 301 305 307 311 313 309 311 308 305 297 296 297 296 305 301 303 308 309 310 312 316 319 320
310 308 306 307 311 309 307 296 286 294 298 305 304 304 301 304 303 304 302 301 306 305 303 300 298 308 312 310 306 306 305 298 292 294 298 304 298 304 310 311 313 314 317 321 319
308 306 304 306 309 306 298 288 289 296 301 301 303 301 301 304 303 303 302 301 305 307 302 301 302 310 311 312 310 305 302 308 301 302 298 301 305 309 309 311 314 314 318 320 320
304 300 299 306 310 304 290 287 292 298 300 302 298 302 299 301 301 302 302 305 304 307 310 308 301 308 309 311 311 308 310 301 302 293 292 299 300 302 306 309 315 316 318 319 319
301 294 303 306 309 295 284 289 293 299 300 297 298 299 302 302 303 302 302 306 307 306 309 308 307 305 309 306 304 304 303 305 305 302 295 295 299 310 309 313 315 318 319 318 318
297 291 306 308 291 290 286 292 295 295 299 298 298 298 299 303 303 302 302 305 309 309 304 309 308 302 304 310 311 309 305 306 300 298 302 301 302 312 312 315 317 318 319 318 319
295 297 308 306 287 289 293 292 294 295 295 295 296 298 301 300 299 304 305 309 309 308 307 310 305 300 302 306 309 305 306 307 307 307 301 298 300 312 314 315 317 318 319 318 319
294 290 296 298 293 290 291 291 290 297 295 296 296 298 297 297 303 302 304 308 310 309 312 313 308 303 299 302 305 302 304 306 306 301 301 302 304 309 311 313 316 318 320 319 319
297 292 295 287 290 291 290 291 290 289 295 297 295 295 296 296 300 301 305 307 308 309 311 313 304 305 306 306 306 305 304 304 303 304 301 304 305 309 312 313 316 319 321 319 318
291 293 296 293 292 290 291 289 289 290 292 292 292 295 297 296 300 299 303 305 305 307 308 313 305 306 302 305 305 303 305 305 305 305 305 306 306 313 315 315 316 319 319 319 318
300 299 294 288 292 289 288 290 290 292 293 295 295 294 294 297 299 303 305 307 309 306 308 308 305 304 298 303 303 300 304 305 305 306 307 303 309 313 312 313 315 317 319 320 320
Wind_Speed
15 15 15 16 15 16 17 17 17 17 16 17 16 17 16 16 18 9 17 9 11 15 5 16 15 15 18 17 19 13 14 15 18 16 10 12 12 3 4 10 6 5 7 6 6
14 15 15 16 17 16 17 17 18 18 18 19 19 18 18 16 14 23 19 12 11 20 18 20 20 18 16 19 18 16 14 20 15 14 12 16 17 17 6 10 8 9 7 4 7
14 15 16 17 16 15 16 17 18 19 19 19 20 19 19 17 17 18 8 15 19 19 25 22 19 20 21 20 20 20 17 18 17 15 14 15 17 9 8 10 8 3 7 14 12
12 14 15 16 17 17 17 18 18 18 19 19 20 21 22 8 9 9 6 12 11 19 24 25 23 23 23 24 21 21 19 19 16 19 16 13 10 9 7 10 4 5 4 8 13
11 12 14 15 16 17 17 18 18 18 17 17 18 16 13 12 17 7 10 11 10 18 26 26 26 25 26 25 22 18 17 21 22 17 15 13 9 11 11 6 4 4 7 10 12
10 11 12 13 14 15 15 15 16 16 18 18 17 15 8 21 12 18 15 14 14 18 23 24 22 23 23 24 20 22 24 19 17 17 15 11 16 7 12 1 4 9 11 10 9
13 12 12 12 13 14 15 15 15 16 18 17 15 10 15 25 12 8 11 17 18 17 18 22 24 22 21 24 20 20 19 20 18 18 16 12 17 16 12 9 10 9 9 13 13
14 13 13 13 12 14 16 17 19 20 21 19 14 13 17 16 22 27 19 11 9 14 23 18 22 28 24 17 21 20 23 20 21 23 15 10 19 16 14 12 12 13 13 11 12
14 13 14 14 15 14 16 19 23 22 16 10 10 14 21 7 28 25 23 24 21 15 17 16 16 25 23 20 20 20 18 23 20 12 14 17 20 19 7 10 12 12 12 11 11
15 14 15 16 16 16 16 23 18 8 11 11 13 7 19 19 18 18 23 24 18 20 17 18 15 20 20 19 21 22 24 20 17 14 13 16 19 19 16 16 15 16 12 11 13
16 15 12 14 15 14 15 14 7 10 20 16 15 18 5 11 7 10 16 19 21 21 24 24 19 25 31 28 24 22 20 17 13 6 14 10 16 20 20 15 17 17 12 12 13
16 16 16 12 14 13 13 13 7 7 11 29 28 26 24 5 8 18 16 20 24 25 26 22 27 27 27 27 27 24 20 18 15 14 9 13 19 20 20 21 19 17 14 10 13
14 14 15 13 14 12 17 20 6 7 11 21 28 28 27 24 21 18 26 24 25 28 30 29 25 26 26 26 25 23 20 16 17 15 10 13 23 22 15 11 13 12 7 10 14
14 13 14 13 8 13 15 13 9 5 10 19 20 26 29 25 30 25 25 26 22 30 28 27 27 27 27 26 23 21 18 18 15 15 13 14 16 16 16 9 10 13 13 11 13
15 14 13 9 14 11 10 4 7 6 11 8 29 10 21 33 9 31 28 26 29 22 27 29 26 27 25 27 23 17 17 15 12 15 17 18 13 16 11 10 6 10 14 14 15
16 14 11 11 13 15 13 4 8 12 17 10 14 18 22 33 34 11 34 26 22 26 27 30 28 24 23 19 18 20 14 13 9 11 16 18 16 15 9 3 5 5 4 14 15
17 15 12 11 10 9 13 8 11 18 15 15 19 19 26 24 33 26 33 31 28 28 29 28 31 26 19 22 22 14 13 10 13 14 14 15 10 10 14 5 7 4 8 11 14
15 12 13 12 13 8 8 13 18 22 33 6 22 21 29 24 33 30 30 29 32 29 17 24 29 29 21 25 22 21 19 12 14 13 13 10 7 7 1 2 3 3 3 13 14
11 7 12 11 13 6 7 19 24 23 22 33 15 20 27 29 19 32 31 32 33 32 27 25 26 25 25 24 25 17 21 19 19 17 12 9 8 8 6 11 9 5 4 11 15
3 5 11 13 14 8 6 24 29 29 28 23 34 21 23 29 25 36 31 33 34 34 28 18 18 24 28 19 27 22 19 19 13 16 15 12 11 4 10 2 8 7 8 13 17
2 3 7 14 7 6 7 21 30 30 31 20 22 20 26 24 30 27 31 19 35 35 30 28 17 22 25 25 26 21 21 14 14 12 11 10 8 9 5 6 3 9 11 16 17
4 4 6 11 6 3 13 26 27 33 30 15 21 24 27 26 26 30 33 32 29 28 36 30 11 17 27 25 24 25 25 22 11 17 12 13 2 9 7 7 2 11 13 16 17
3 5 2 8 6 13 19 28 27 29 28 26 18 19 25 25 22 29 28 29 19 31 34 26 14 18 23 21 23 25 23 20 18 14 14 12 12 8 11 6 5 8 14 16 17
1 3 3 5 2 7 15 22 24 19 28 21 27 17 23 25 24 19 29 25 19 23 24 22 19 24 19 23 20 24 25 25 22 17 16 16 14 14 14 13 10 7 14 17 17
3 4 5 4 10 15 15 15 20 24 20 23 22 25 23 22 21 24 22 26 19 18 20 24 24 25 24 19 24 21 22 27 27 22 22 18 18 14 12 14 12 12 14 16 19
2 4 3 12 11 6 10 13 18 19 9 19 22 22 22 19 19 20 18 17 23 21 23 20 22 22 25 24 23 26 25 25 26 24 23 22 18 14 12 10 11 15 13 16 19
1 2 4 4 7 7 7 7 12 15 19 18 22 22 23 22 20 29 21 22 21 23 23 23 18 22 20 22 24 23 27 26 23 22 22 21 20 14 10 14 8 9 11 15 18
Wind_Direction
345 347 346 346 348 349 348 348 344 342 339 332 333 327 329 326 307 224 241 242 191 163 238 185 207 211 216 226 228 237 258 262 269 283 305 305 289 254 153 280 211 274 279 38 128
340 341 341 340 346 342 339 345 342 336 337 335 332 331 325 328 287 266 253 183 155 152 207 194 199 208 218 229 231 233 247 259 288 304 302 302 298 300 246 245 224 222 236 205 196
334 335 337 338 337 334 337 339 335 335 336 331 329 327 323 318 273 268 21 181 165 180 214 207 214 210 226 229 230 228 246 272 289 290 286 304 288 292 277 270 303 286 244 182 206
323 329 330 330 331 330 332 333 330 330 328 329 326 324 322 289 263 68 59 128 157 195 233 228 222 226 227 234 234 241 244 272 280 269 268 277 304 291 268 272 335 308 295 193 211
299 311 319 320 321 323 326 326 321 317 317 317 312 314 303 237 246 234 147 114 187 208 226 225 219 222 228 238 246 234 254 253 260 254 258 275 269 265 284 297 279 250 239 233 220
266 275 289 299 305 311 312 309 305 303 307 309 304 309 243 259 260 251 196 177 200 204 221 237 229 224 238 243 241 233 237 253 258 253 257 239 258 178 267 170 276 248 248 237 230
278 270 267 279 294 299 296 295 293 293 295 283 279 275 264 245 291 231 221 235 231 231 232 228 240 237 235 249 247 256 254 255 253 253 250 229 254 245 250 214 250 251 240 242 217
289 277 278 277 278 289 294 297 291 290 288 278 264 249 258 256 233 251 253 223 235 254 223 236 225 247 238 247 255 246 242 254 249 224 224 218 255 258 216 239 252 247 231 238 223
313 304 284 284 287 290 293 294 290 289 276 248 218 226 259 220 225 234 229 235 235 242 222 232 229 228 237 242 240 225 245 242 247 199 221 206 257 277 235 271 265 276 267 231 212
302 305 295 282 286 290 296 284 281 278 220 207 260 229 243 241 232 231 225 230 218 211 217 216 222 217 225 223 229 227 232 231 248 212 199 251 251 254 246 247 267 262 243 231 213
300 296 297 292 285 285 297 291 210 196 216 212 193 218 250 210 195 213 218 200 208 221 209 205 214 209 213 221 228 248 264 274 283 286 247 252 276 282 286 274 265 267 235 229 209
310 304 300 303 292 281 279 258 337 345 273 227 253 233 250 244 246 217 178 197 200 208 201 200 222 216 218 222 231 243 256 262 262 272 271 281 284 283 288 273 270 264 231 215 196
294 304 300 300 301 262 252 255 337 294 257 246 229 231 224 231 233 230 199 201 201 211 203 217 211 221 219 224 225 229 243 250 262 276 252 285 268 265 262 268 267 255 230 206 196
289 290 296 304 267 250 247 241 237 267 267 249 207 232 218 217 232 224 202 207 223 214 213 220 226 210 223 223 225 234 227 248 268 274 264 271 294 294 275 274 267 221 205 225 182
276 282 288 270 316 283 50 285 277 234 260 233 199 163 197 198 160 201 219 205 220 205 212 219 219 218 211 224 221 235 243 250 230 256 271 266 266 283 265 248 269 238 218 179 173
259 267 276 245 245 262 293 282 245 226 230 227 140 186 190 200 216 198 197 208 220 228 220 231 214 224 226 207 218 232 226 253 267 257 256 260 263 269 285 91 298 240 128 145 167
250 252 252 266 258 250 296 233 212 228 210 224 180 187 198 190 200 218 187 196 204 208 216 212 226 214 196 209 213 210 214 220 225 230 246 249 242 286 296 305 279 284 151 151 160
254 236 231 246 252 261 274 217 233 220 227 223 179 195 206 187 201 212 186 200 207 209 200 207 208 207 187 213 201 197 213 228 217 235 253 128 240 291 170 355 275 274 302 133 161
260 220 246 221 238 187 243 219 221 235 212 249 195 203 208 195 191 205 197 205 200 204 225 203 215 203 199 204 223 185 216 228 260 285 288 275 282 215 195 230 205 185 173 152 165
218 217 239 222 211 191 239 237 237 256 278 272 238 231 211 207 206 197 194 208 209 210 217 199 211 213 190 202 221 217 197 218 228 250 262 249 248 242 183 147 92 153 178 156 164
196 198 218 191 141 200 226 232 237 260 271 320 313 274 228 215 201 199 205 205 207 199 216 232 214 193 187 195 205 205 229 200 249 224 236 251 271 96 107 96 122 146 158 162 167
167 237 142 117 187 183 227 228 246 256 253 300 301 291 279 244 215 219 208 209 194 205 205 214 205 227 200 194 212 213 210 215 214 222 252 272 239 98 167 141 191 138 159 164 171
252 252 358 176 221 227 239 240 247 263 261 266 272 300 304 296 280 210 232 218 187 203 197 201 198 219 191 201 200 223 212 213 226 245 232 229 243 171 148 150 181 150 166 168 172
260 268 172 204 209 275 279 253 235 262 256 270 278 282 285 281 269 266 208 217 204 202 194 204 205 214 204 200 191 206 221 204 216 215 233 237 255 145 178 197 166 171 167 174 178
262 254 290 239 232 240 252 284 284 236 238 268 248 262 271 275 261 251 216 216 192 202 190 195 214 208 227 212 192 205 211 216 212 217 223 229 235 243 199 195 190 166 165 184 185
268 275 298 284 254 278 245 250 263 283 235 248 240 257 280 288 292 288 257 229 187 204 190 194 212 210 216 226 203 202 209 219 222 217 223 234 245 230 210 233 191 160 171 189 192
279 139 278 260 280 248 244 262 305 294 261 244 271 258 251 268 334 308 315 303 284 206 184 187 200 208 216 210 224 213 208 212 220 224 221 224 231 241 222 213 221 184 173 198 195